Dubuque, IA

7:20 PM CST on November 18, 2019 (GMT -0600)
Dubuque Regional

Weather History for KDBQ - October, 2019

Change the Weather History Date:

Saturday, October 12, 2019

  Actual Average Record
Temperature  
Mean Temperature 42 °F 51 °F  
Max Temperature 54 °F 62 °F 85 °F (1886)
Min Temperature 29 °F 41 °F 23 °F (1988)
Degree Days  
Heating Degree Days 24 14  
Month to date heating degree days 126 145  
Since 1 July heating degree days 188 323  
Cooling Degree Days 0 0  
Month to date cooling degree days 9 4  
Year to date cooling degree days 679 641  
Moisture  
Dew Point 26 °F    
Average Humidity 61    
Maximum Humidity 79    
Minimum Humidity 35    
Precipitation  
Precipitation 0.00 in 0.08 in 1.40 in (1890)
Month to date precipitation 5.42 1.04  
Year to date precipitation 49.86 30.48  
Snow  
Snow 0.00 in 0.00 in - ()
Month to date snowfall 0.0 0.0  
Since 1 July snowfall 0.0 0.0  
Since 1 September snowfall 0.0 0.0  
Snow Depth 0.00 in    
Sea Level Pressure  
Sea Level Pressure 29.88 in    
Wind  
Wind Speed 16 mph ()    
Max Wind Speed 39 mph    
Max Gust Speed 52 mph    
Visibility 10.0 miles    
Events      
T = Trace of Precipitation, MM = Missing Value Source: Averaged Metar Reports

Daily Weather History Graph

Daily Weather History Graph

Search for Another Location

Airport or City:

Astronomy

Oct. 12, 2019 Rise Set
Actual Time 7:12 AM CDT 6:25 PM CDT
Civil Twilight 6:43 AM CDT 6:54 PM CDT
Nautical Twilight 6:11 AM CDT 7:26 PM CDT
Astronomical Twilight 5:38 AM CDT 7:59 PM CDT
Moon 6:24 PM CDT (10/12) 5:46 AM CDT (10/12)
Length of Visible Light 12h 10m
Length of Day
11h 13m
Waxing Gibbous, 99% of the Moon is Illuminated
Oct 12
Waxing Gibbous
Oct 13
Full
Oct 21
Last Quarter
Oct 27
New
Nov 4
First Quarter

Hourly Weather History & Observations

Time (CDT) Temp. Windchill Dew Point Humidity Pressure Visibility Wind Dir Wind Speed Gust Speed Precip Events Conditions
12:53 AM 37.0 °F 26.4 °F 23.0 °F 57% 30.01 in 10.0 mi WSW 20.7 mph - N/A   Overcast
1:53 AM 34.0 °F 24.2 °F 23.0 °F 64% 30.01 in 10.0 mi WSW 15.0 mph - N/A   Partly Cloudy
2:53 AM 32.0 °F 21.6 °F 24.1 °F 73% 29.99 in 10.0 mi WSW 15.0 mph 21.9 mph N/A   Clear
3:53 AM 30.9 °F 22.2 °F 23.0 °F 72% 29.98 in 10.0 mi SW 10.4 mph - N/A   Clear
4:53 AM 30.9 °F 21.2 °F 24.1 °F 76% 29.98 in 10.0 mi SW 12.7 mph - N/A   Clear
5:53 AM 30.0 °F 20.0 °F 24.1 °F 79% 29.96 in 10.0 mi SW 12.7 mph - N/A   Clear
6:53 AM 30.0 °F 18.7 °F 23.0 °F 75% 29.96 in 10.0 mi SW 16.1 mph - N/A   Clear
7:53 AM 30.0 °F 17.9 °F 23.0 °F 75% 29.94 in 10.0 mi SSW 18.4 mph - N/A   Clear
8:53 AM 33.1 °F 20.9 °F 24.1 °F 70% 29.94 in 10.0 mi SW 21.9 mph 32.2 mph N/A   Clear
9:53 AM 37.9 °F 27.3 °F 25.0 °F 60% 29.92 in 10.0 mi SW 21.9 mph 31.1 mph N/A   Clear
10:53 AM 42.1 °F 32.8 °F 25.0 °F 51% 29.89 in 10.0 mi SW 21.9 mph 34.5 mph N/A   Clear
11:53 AM 46.0 °F 36.9 °F 24.1 °F 42% 29.86 in 10.0 mi SW 28.8 mph 41.4 mph N/A   Clear
12:53 PM 46.9 °F - 25.0 °F 42% 29.81 in 10.0 mi SW 28.8 mph 36.8 mph N/A   Clear
1:53 PM 48.9 °F - 25.0 °F 39% 29.79 in 10.0 mi WSW 27.6 mph 39.1 mph N/A   Clear
2:53 PM 52.0 °F - 25.0 °F 35% 29.76 in 10.0 mi SW 31.1 mph 42.6 mph N/A   Mostly Cloudy
3:53 PM 51.1 °F - 24.1 °F 35% 29.77 in 10.0 mi SW 28.8 mph 43.7 mph N/A   Overcast
4:53 PM 46.0 °F 39.0 °F 26.1 °F 46% 29.81 in 10.0 mi NW 17.3 mph 26.5 mph N/A   Overcast
5:00 PM 46.0 °F 38.5 °F 26.1 °F 46% 29.78 in 10.0 mi NW 19.6 mph 27.6 mph N/A   Mostly Cloudy
5:53 PM 41.0 °F 32.2 °F 30.0 °F 65% 29.83 in 10.0 mi NW 18.4 mph 27.6 mph N/A   Clear
6:53 PM 39.9 °F 32.1 °F 30.0 °F 68% 29.84 in 10.0 mi NW 13.8 mph 23.0 mph N/A   Overcast
7:53 PM 39.0 °F 32.3 °F 30.0 °F 70% 29.85 in 10.0 mi WNW 10.4 mph - N/A   Overcast
8:53 PM 39.0 °F 31.8 °F 30.0 °F 70% 29.85 in 10.0 mi WNW 11.5 mph - N/A   Overcast
9:53 PM 37.9 °F 29.6 °F 30.9 °F 76% 29.84 in 10.0 mi West 13.8 mph - N/A   Mostly Cloudy
10:53 PM 37.9 °F 30.0 °F 30.0 °F 73% 29.84 in 10.0 mi West 12.7 mph - N/A   Overcast
11:53 PM 37.9 °F 30.9 °F 28.9 °F 70% 29.82 in 10.0 mi WSW 10.4 mph - N/A   Overcast